M I D A S
Marine Information and Data Acquisition System
Tripno 681 of the Zeeleeuw from 2004-04-01 06:13:06 to 2004-04-01 13:39:56
Back to CruiseResearch ActivitiesStationsMapUnderway DataData graphs

EquipmentUnitsComments
TimeDGPSUTC
LatitudeDGPSDM.mWGS84
LongitudeDGPSDM.mWGS84
SpeedMeteo Stationm/sRelative wind speed
DirectionMeteo StationdegRelative wind direction
TemperatureMeteo Stationdeg CelciusAir temperature
PressureMeteo StationPaAtmospheric pressure
HumidityMeteo Station%Relative humidity
Missing or incorrect values are displayed as -999
Metereological data collected by the RV Zeeleeuw from 2004-04-01 06:13:06 to 2004-04-01 13:39:56
                                                                                    Next 1000 lines
Time Latitude Longitude Speed Direction Temperature Pressure Humidity
2004-04-01 06:13:13 51°13.595 2°56.098 5.2 1 10.4 100830 78
2004-04-01 06:13:18 51°13.595 2°56.098 5.2 3 10.4 100830 77
2004-04-01 06:13:24 51°13.595 2°56.098 4.9 11 10.4 100830 77
2004-04-01 06:13:28 51°13.595 2°56.098 4.9 11 10.4 100830 77
2004-04-01 06:13:34 51°13.595 2°56.098 4.3 10 10.4 100830 77
2004-04-01 06:13:38 51°13.595 2°56.098 4 15 10.4 100830 77
2004-04-01 06:13:44 51°13.595 2°56.098 3.9 6 10.4 100830 77
2004-04-01 06:13:48 51°13.595 2°56.098 3.7 10 10.4 100830 77
2004-04-01 06:13:54 51°13.595 2°56.097 4.4 20 10.4 100830 77
2004-04-01 06:13:58 51°13.595 2°56.096 4 20 10.4 100830 77
2004-04-01 06:14:04 51°13.596 2°56.094 3.9 22 10.4 100830 77
2004-04-01 06:14:08 51°13.597 2°56.091 3.6 21 10.4 100830 77
2004-04-01 06:14:13 51°13.598 2°56.087 3.6 43 10.4 100830 77
2004-04-01 06:14:18 51°13.599 2°56.083 2.5 44 10.4 100840 77
2004-04-01 06:14:24 51°13.601 2°56.076 2.1 39 10.4 100840 77
2004-04-01 06:14:29 51°13.603 2°56.071 2.3 16 10.4 100840 77
2004-04-01 06:14:34 51°13.604 2°56.065 2.9 32 10.4 100840 77
2004-04-01 06:14:38 51°13.605 2°56.06 2.2 28 10.4 100840 77
2004-04-01 06:14:44 51°13.607 2°56.052 2 43 10.4 100840 77
2004-04-01 06:14:49 51°13.609 2°56.045 2.1 23 10.4 100840 77
2004-04-01 06:14:54 51°13.611 2°56.037 1.7 30 10.4 100840 77
2004-04-01 06:14:58 51°13.612 2°56.031 1.8 30 10.4 100840 77
2004-04-01 06:15:04 51°13.614 2°56.022 1.6 42 10.4 100840 77
2004-04-01 06:15:09 51°13.617 2°56.015 1.4 49 10.4 100840 78
2004-04-01 06:15:14 51°13.619 2°56.007 1.6 59 10.4 100840 78
2004-04-01 06:15:18 51°13.62 2°56 1.5 63 10.4 100840 78
2004-04-01 06:15:24 51°13.623 2°55.99 1.8 53 10.4 100840 78
2004-04-01 06:15:29 51°13.626 2°55.982 1.9 43 10.4 100840 78
2004-04-01 06:15:34 51°13.628 2°55.973 1.4 40 10.4 100840 78
2004-04-01 06:15:40 51°13.632 2°55.962 1.4 40 10.4 100840 78
2004-04-01 06:15:44 51°13.634 2°55.955 1.4 42 10.4 100840 78
2004-04-01 06:15:49 51°13.637 2°55.946 1.3 39 10.4 100840 78
2004-04-01 06:15:54 51°13.64 2°55.937 1.2 35 10.4 100840 78
2004-04-01 06:15:58 51°13.643 2°55.93 1.3 27 10.4 100840 78
2004-04-01 06:16:04 51°13.647 2°55.919 1.3 34 10.4 100840 78
2004-04-01 06:16:09 51°13.65 2°55.91 1.4 48 10.4 100840 78
2004-04-01 06:16:14 51°13.653 2°55.9 1.2 52 10.4 100840 78
2004-04-01 06:16:18 51°13.656 2°55.892 1.2 58 10.4 100840 78
2004-04-01 06:16:24 51°13.66 2°55.88 0.9 70 10.4 100840 78
2004-04-01 06:16:29 51°13.662 2°55.87 0.9 74 10.4 100840 78
2004-04-01 06:16:34 51°13.665 2°55.859 1.6 114 10.4 100840 78
2004-04-01 06:16:40 51°13.667 2°55.846 1.7 120 10.4 100840 78
2004-04-01 06:16:44 51°13.669 2°55.837 1.7 115 10.4 100840 78
2004-04-01 06:16:49 51°13.67 2°55.826 1.7 91 10.4 100840 78
2004-04-01 06:16:54 51°13.671 2°55.814 2.4 125 10.4 100840 78
2004-04-01 06:16:58 51°13.672 2°55.805 1.9 42 10.4 100850 78
2004-04-01 06:17:04 51°13.674 2°55.791 2.1 126 10.4 100850 78
2004-04-01 06:17:09 51°13.674 2°55.78 2.2 103 10.4 100840 78
2004-04-01 06:17:14 51°13.675 2°55.77 2 112 10.4 100840 78
2004-04-01 06:17:18 51°13.676 2°55.763 1.3 133 10.4 100840 78
2004-04-01 06:17:24 51°13.676 2°55.754 1.9 128 10.4 100840 78
2004-04-01 06:17:28 51°13.677 2°55.751 1.5 124 10.4 100850 78
2004-04-01 06:17:33 51°13.677 2°55.749 1.8 67 10.4 100850 78
2004-04-01 06:17:38 51°13.678 2°55.749 2.9 59 10.4 100840 78
2004-04-01 06:17:44 51°13.68 2°55.75 3.1 73 10.4 100840 78
2004-04-01 06:17:48 51°13.681 2°55.752 2.6 60 10.4 100850 78
2004-04-01 06:17:54 51°13.683 2°55.755 4.1 85 10.4 100850 78
2004-04-01 06:17:58 51°13.685 2°55.758 3.8 97 10.4 100850 78
2004-04-01 06:18:04 51°13.688 2°55.762 2.5 75 10.4 100850 78
2004-04-01 06:18:08 51°13.691 2°55.765 3.1 76 10.4 100850 78
2004-04-01 06:18:14 51°13.695 2°55.769 3.5 81 10.4 100850 78
2004-04-01 06:18:18 51°13.697 2°55.77 3.8 92 10.4 100850 78
2004-04-01 06:18:24 51°13.7 2°55.772 3.7 103 10.4 100850 78
2004-04-01 06:18:28 51°13.701 2°55.772 3.8 104 10.4 100840 77
2004-04-01 06:18:33 51°13.701 2°55.772 4.1 122 10.4 100840 77
2004-04-01 06:18:38 51°13.7 2°55.771 4.5 121 10.4 100840 77
2004-04-01 06:18:43 51°13.699 2°55.77 4.5 130 10.4 100840 77
2004-04-01 06:18:48 51°13.697 2°55.769 4.2 135 10.4 100840 78
2004-04-01 06:18:54 51°13.694 2°55.766 4.4 131 10.4 100840 78
2004-04-01 06:18:58 51°13.691 2°55.765 4.5 135 10.4 100840 78
2004-04-01 06:19:04 51°13.687 2°55.762 4 139 10.4 100840 78
2004-04-01 06:19:09 51°13.685 2°55.761 3.7 139 10.4 100850 78
2004-04-01 06:19:14 51°13.684 2°55.76 2.4 138 10.4 100850 78
2004-04-01 06:19:19 51°13.684 2°55.759 1.9 131 10.4 100840 78
2004-04-01 06:19:24 51°13.687 2°55.759 2.7 151 10.4 100840 78
2004-04-01 06:19:29 51°13.69 2°55.758 1.9 151 10.4 100840 78
2004-04-01 06:19:34 51°13.694 2°55.757 2 120 10.4 100840 78
2004-04-01 06:19:38 51°13.698 2°55.756 1.7 117 10.4 100840 78
2004-04-01 06:19:44 51°13.705 2°55.752 2.2 131 10.4 100840 78
2004-04-01 06:19:48 51°13.71 2°55.75 2.1 135 10.4 100840 78
2004-04-01 06:19:54 51°13.717 2°55.744 1.9 135 10.4 100840 78
2004-04-01 06:19:58 51°13.721 2°55.741 1.6 198 10.4 100850 78
2004-04-01 06:20:04 51°13.728 2°55.735 1.8 183 10.4 100850 78
2004-04-01 06:20:08 51°13.732 2°55.731 1.2 183 10.4 100850 78
2004-04-01 06:20:13 51°13.738 2°55.725 2 209 10.4 100850 78
2004-04-01 06:20:18 51°13.744 2°55.719 1.6 197 10.4 100840 78
2004-04-01 06:20:24 51°13.753 2°55.711 1 213 10.4 100840 78
2004-04-01 06:20:28 51°13.759 2°55.706 1.1 260 10.4 100850 78
2004-04-01 06:20:34 51°13.768 2°55.697 0.4 256 10.4 100850 78
2004-04-01 06:20:38 51°13.774 2°55.691 1 130 10.4 100850 78
2004-04-01 06:20:44 51°13.785 2°55.681 0.9 124 10.4 100850 78
2004-04-01 06:20:48 51°13.792 2°55.675 1.1 117 10.4 100850 78
2004-04-01 06:20:53 51°13.801 2°55.667 0.9 116 10.4 100850 78
2004-04-01 06:20:58 51°13.81 2°55.658 0.6 116 10.4 100850 78
2004-04-01 06:21:04 51°13.822 2°55.647 0.4 119 10.4 100850 78
2004-04-01 06:21:09 51°13.831 2°55.638 0.4 118 10.4 100840 78
2004-04-01 06:21:14 51°13.841 2°55.63 1.3 129 10.4 100840 78
2004-04-01 06:21:18 51°13.849 2°55.623 0.9 94 10.4 100850 78
2004-04-01 06:21:24 51°13.861 2°55.613 1 84 10.4 100850 78
2004-04-01 06:21:29 51°13.871 2°55.604 1.4 96 10.4 100850 78
2004-04-01 06:21:34 51°13.881 2°55.596 1.7 79 10.4 100850 78
2004-04-01 06:21:38 51°13.889 2°55.589 2 59 10.4 100850 78
2004-04-01 06:21:44 51°13.901 2°55.58 2 61 10.4 100850 78
2004-04-01 06:21:49 51°13.911 2°55.572 1.8 110 10.4 100850 78
2004-04-01 06:21:54 51°13.921 2°55.564 1.4 122 10.4 100850 78
2004-04-01 06:21:58 51°13.929 2°55.557 1.1 146 10.5 100850 78
2004-04-01 06:22:04 51°13.94 2°55.548 1 195 10.5 100850 78
2004-04-01 06:22:08 51°13.948 2°55.542 0.8 187 10.4 100840 78
2004-04-01 06:22:14 51°13.96 2°55.533 0.8 53 10.4 100840 78
2004-04-01 06:22:18 51°13.968 2°55.527 1.7 45 10.4 100850 78
2004-04-01 06:22:24 51°13.98 2°55.518 1.8 80 10.4 100850 78
2004-04-01 06:22:29 51°13.99 2°55.511 1.7 84 10.4 100850 78
2004-04-01 06:22:33 51°13.998 2°55.506 1.7 107 10.4 100850 78
2004-04-01 06:22:38 51°14.008 2°55.499 1.7 109 10.5 100850 78
2004-04-01 06:22:44 51°14.02 2°55.49 1.6 108 10.5 100850 78
2004-04-01 06:22:48 51°14.028 2°55.484 1.4 119 10.4 100850 78
2004-04-01 06:22:52 51°14.037 2°55.479 1 135 10.4 100850 78
2004-04-01 06:22:58 51°14.049 2°55.47 1.4 103 10.4 100850 78
2004-04-01 06:23:04 51°14.062 2°55.461 1.4 102 10.4 100850 78
2004-04-01 06:23:08 51°14.071 2°55.455 2.6 108 10.4 100850 78
2004-04-01 06:23:13 51°14.082 2°55.448 2.5 119 10.4 100850 78
2004-04-01 06:23:18 51°14.094 2°55.439 2.7 114 10.4 100850 78
2004-04-01 06:23:24 51°14.108 2°55.429 2 126 10.4 100850 78
2004-04-01 06:23:29 51°14.12 2°55.42 2.1 120 10.4 100850 78
2004-04-01 06:23:33 51°14.13 2°55.413 2.5 99 10.4 100850 78
2004-04-01 06:23:38 51°14.143 2°55.404 2.7 94 10.4 100850 78
2004-04-01 06:23:44 51°14.159 2°55.392 3 100 10.4 100850 78
2004-04-01 06:23:48 51°14.169 2°55.383 2.1 114 10.4 100840 78
2004-04-01 06:23:53 51°14.182 2°55.371 1.9 104 10.4 100840 78
2004-04-01 06:23:58 51°14.194 2°55.358 1.5 45 10.4 100840 78
2004-04-01 06:24:04 51°14.209 2°55.342 1.3 58 10.4 100840 78
2004-04-01 06:24:09 51°14.221 2°55.327 1.4 62 10.4 100850 78
2004-04-01 06:24:14 51°14.233 2°55.311 1.6 49 10.4 100850 78
2004-04-01 06:24:18 51°14.243 2°55.298 1.5 37 10.4 100840 78
2004-04-01 06:24:24 51°14.257 2°55.278 1.1 44 10.4 100840 78
2004-04-01 06:24:29 51°14.268 2°55.26 1.2 55 10.4 100850 78
2004-04-01 06:24:34 51°14.279 2°55.242 1.8 40 10.4 100850 78
2004-04-01 06:24:38 51°14.288 2°55.227 2.1 30 10.4 100850 78
2004-04-01 06:24:42 51°14.297 2°55.212 1.9 23 10.4 100850 78
2004-04-01 06:24:49 51°14.313 2°55.185 1.8 24 10.4 100850 78
2004-04-01 06:24:54 51°14.324 2°55.165 1.7 12 10.4 100850 78
2004-04-01 06:24:58 51°14.332 2°55.149 1.8 13 10.4 100850 78
2004-04-01 06:25:04 51°14.344 2°55.124 1.4 227 10.4 100850 78
2004-04-01 06:25:08 51°14.351 2°55.106 1.4 227 10.4 100850 78
2004-04-01 06:25:14 51°14.362 2°55.079 1.3 322 10.4 100850 78
2004-04-01 06:25:18 51°14.37 2°55.06 1.5 337 10.4 100850 78
2004-04-01 06:25:24 51°14.38 2°55.031 1.2 339 10.4 100850 78
2004-04-01 06:25:28 51°14.388 2°55.011 1.6 334 10.5 100850 78
2004-04-01 06:25:34 51°14.399 2°54.981 1.8 329 10.5 100850 78
2004-04-01 06:25:38 51°14.407 2°54.961 1.6 331 10.5 100850 78
2004-04-01 06:25:44 51°14.42 2°54.932 1.5 354 10.5 100850 78
2004-04-01 06:25:49 51°14.432 2°54.909 2 341 10.4 100850 78
2004-04-01 06:25:54 51°14.444 2°54.885 1.9 4 10.4 100850 78
2004-04-01 06:25:58 51°14.454 2°54.867 1.6 18 10.4 100850 78
2004-04-01 06:26:04 51°14.469 2°54.84 1.4 4 10.4 100850 78
2004-04-01 06:26:08 51°14.479 2°54.822 1.3 358 10.4 100840 78
2004-04-01 06:26:13 51°14.492 2°54.8 1.3 20 10.4 100840 78
2004-04-01 06:26:18 51°14.506 2°54.778 1.2 17 10.4 100850 78
2004-04-01 06:26:24 51°14.522 2°54.752 1.4 357 10.4 100850 78
2004-04-01 06:26:28 51°14.532 2°54.735 1.3 3 10.4 100850 78
2004-04-01 06:26:34 51°14.548 2°54.708 1.7 357 10.4 100850 78
2004-04-01 06:26:38 51°14.559 2°54.691 1.5 356 10.4 100850 78
2004-04-01 06:26:44 51°14.575 2°54.665 1.2 11 10.4 100850 78
2004-04-01 06:26:48 51°14.586 2°54.647 0.8 15 10.4 100850 78
2004-04-01 06:26:54 51°14.602 2°54.621 1 19 10.4 100850 78
2004-04-01 06:26:58 51°14.613 2°54.603 0.9 20 10.4 100850 78
2004-04-01 06:27:04 51°14.629 2°54.577 0.7 19 10.4 100850 78
2004-04-01 06:27:08 51°14.639 2°54.559 1 15 10.4 100840 78
2004-04-01 06:27:14 51°14.655 2°54.533 1.1 26 10.4 100840 78
2004-04-01 06:27:18 51°14.666 2°54.515 1 17 10.4 100840 78
2004-04-01 06:27:24 51°14.682 2°54.488 1.5 342 10.4 100840 78
2004-04-01 06:27:28 51°14.693 2°54.471 1.4 332 10.4 100850 78
2004-04-01 06:27:34 51°14.709 2°54.444 1.2 334 10.4 100850 78
2004-04-01 06:27:38 51°14.719 2°54.426 1 327 10.4 100840 78
2004-04-01 06:27:44 51°14.735 2°54.399 1.4 43 10.4 100840 78
2004-04-01 06:27:48 51°14.746 2°54.381 1.3 309 10.4 100840 78
2004-04-01 06:27:54 51°14.762 2°54.354 1 312 10.4 100840 78
2004-04-01 06:27:58 51°14.772 2°54.337 1 313 10.4 100840 78
2004-04-01 06:28:02 51°14.783 2°54.319 0.7 44 10.4 100840 78
2004-04-01 06:28:08 51°14.799 2°54.293 0.6 305 10.4 100840 78
2004-04-01 06:28:14 51°14.814 2°54.266 0.4 304 10.4 100840 78
2004-04-01 06:28:18 51°14.825 2°54.248 0.2 304 10.4 100850 78
2004-04-01 06:28:24 51°14.841 2°54.222 0.1 304 10.4 100850 78
2004-04-01 06:28:28 51°14.852 2°54.204 0.1 304 10.4 100840 78
2004-04-01 06:28:33 51°14.865 2°54.183   303 10.4 100840 78
2004-04-01 06:28:38 51°14.878 2°54.161   303 10.4 100850 78
2004-04-01 06:28:44 51°14.893 2°54.134   304 10.4 100850 78
2004-04-01 06:28:48 51°14.904 2°54.117   304 10.4 100840 78
2004-04-01 06:28:54 51°14.919 2°54.091   310 10.4 100840 78
2004-04-01 06:28:58 51°14.93 2°54.073   227 10.4 100840 78
2004-04-01 06:29:04 51°14.945 2°54.047   317 10.4 100840 78
2004-04-01 06:29:08 51°14.956 2°54.03   317 10.4 100840 78
2004-04-01 06:29:13 51°14.969 2°54.008   318 10.4 100840 78
2004-04-01 06:29:18 51°14.982 2°53.986   321 10.4 100850 78
2004-04-01 06:29:24 51°14.998 2°53.959   320 10.4 100850 78
2004-04-01 06:29:29 51°15.01 2°53.937 0.1 321 10.4 100840 78
2004-04-01 06:29:33 51°15.021 2°53.919 0.7 329 10.4 100840 78
2004-04-01 06:29:38 51°15.033 2°53.896 0.9 328 10.4 100840 78
2004-04-01 06:29:44 51°15.049 2°53.869 0.9 330 10.4 100840 78
2004-04-01 06:29:48 51°15.059 2°53.851 1 337 10.4 100850 78
2004-04-01 06:29:53 51°15.073 2°53.83 0.5 342 10.4 100850 78
2004-04-01 06:29:58 51°15.088 2°53.811 0.5 7 10.4 100840 78
2004-04-01 06:30:04 51°15.107 2°53.79 1 59 10.4 100840 78
2004-04-01 06:30:08 51°15.12 2°53.776 1.6 70 10.4 100840 78
2004-04-01 06:30:13 51°15.135 2°53.76 1.3 75 10.4 100840 78
2004-04-01 06:30:18 51°15.152 2°53.745 1.4 76 10.4 100840 78
2004-04-01 06:30:24 51°15.171 2°53.726 1.9 57 10.4 100840 78
2004-04-01 06:30:28 51°15.184 2°53.714 1.8 66 10.4 100840 78
2004-04-01 06:30:33 51°15.201 2°53.699 1.9 67 10.4 100840 78
2004-04-01 06:30:38 51°15.217 2°53.683 2 65 10.4 100840 78
2004-04-01 06:30:44 51°15.236 2°53.664 2.3 50 10.4 100840 78
2004-04-01 06:30:48 51°15.249 2°53.651 2 52 10.4 100840 78
2004-04-01 06:30:54 51°15.269 2°53.632 1.7 65 10.4 100840 78
2004-04-01 06:30:58 51°15.282 2°53.62 1.8 53 10.4 100840 78
2004-04-01 06:31:04 51°15.301 2°53.601 1.5 63 10.4 100840 78
2004-04-01 06:31:09 51°15.318 2°53.586 1.6 73 10.4 100840 78
2004-04-01 06:31:14 51°15.334 2°53.571 1.7 76 10.4 100840 78
2004-04-01 06:31:18 51°15.348 2°53.559 1.8 71 10.4 100840 78
2004-04-01 06:31:24 51°15.367 2°53.541 1.9 72 10.4 100840 78
2004-04-01 06:31:28 51°15.381 2°53.531 2.2 68 10.4 100840 78
2004-04-01 06:31:34 51°15.402 2°53.515 2.5 79 10.4 100840 78
2004-04-01 06:31:38 51°15.416 2°53.506 2.8 79 10.4 100840 78
2004-04-01 06:31:44 51°15.437 2°53.493 2.7 69 10.4 100840 78
2004-04-01 06:31:48 51°15.452 2°53.485 3.6 89 10.3 100840 78
2004-04-01 06:31:53 51°15.469 2°53.475 3 79 10.3 100840 78
2004-04-01 06:31:58 51°15.488 2°53.465 3 82 10.3 100840 78
2004-04-01 06:32:04 51°15.509 2°53.453 2.7 69 10.3 100840 78
2004-04-01 06:32:08 51°15.523 2°53.444 3.3 79 10.3 100840 78
2004-04-01 06:32:14 51°15.545 2°53.431 3.3 90 10.3 100840 78
2004-04-01 06:32:18 51°15.559 2°53.423 3.3 98 10.3 100840 78
2004-04-01 06:32:24 51°15.58 2°53.41 3.9 100 10.3 100840 78
2004-04-01 06:32:28 51°15.594 2°53.401 2.9 92 10.3 100840 78
2004-04-01 06:32:33 51°15.612 2°53.39 2.8 86 10.3 100840 78
2004-04-01 06:32:38 51°15.63 2°53.379 2.5 75 10.3 100840 78
2004-04-01 06:32:44 51°15.651 2°53.366 2.6 94 10.3 100840 78
2004-04-01 06:32:48 51°15.665 2°53.358 2.5 107 10.3 100850 78
2004-04-01 06:32:54 51°15.687 2°53.344 2.8 94 10.3 100850 78
2004-04-01 06:32:58 51°15.701 2°53.335 2.8 90 10.2 100840 78
2004-04-01 06:33:04 51°15.722 2°53.322 2.9 88 10.2 100840 78
2004-04-01 06:33:08 51°15.736 2°53.312 2.6 97 10.2 100840 78
2004-04-01 06:33:14 51°15.757 2°53.298 2.5 89 10.2 100840 78
2004-04-01 06:33:18 51°15.771 2°53.289 2.3 77 10.2 100840 78
2004-04-01 06:33:24 51°15.792 2°53.276 2.5 82 10.2 100840 78
2004-04-01 06:33:28 51°15.806 2°53.267 2.7 92 10.2 100840 78
2004-04-01 06:33:34 51°15.827 2°53.253 2.2 98 10.2 100840 78
2004-04-01 06:33:38 51°15.841 2°53.245 2.5 86 10.2 100840 78
2004-04-01 06:33:43 51°15.859 2°53.234 2.8 92 10.2 100840 78
2004-04-01 06:33:48 51°15.876 2°53.223 3 89 10.2 100840 78
2004-04-01 06:33:54 51°15.898 2°53.209 3 93 10.2 100840 78
2004-04-01 06:33:58 51°15.912 2°53.2 2.8 90 10.2 100840 78
2004-04-01 06:34:04 51°15.933 2°53.186 2.6 88 10.2 100840 78
2004-04-01 06:34:08 51°15.947 2°53.177 2.1 72 10.2 100840 78
2004-04-01 06:34:14 51°15.968 2°53.164 3 85 10.2 100840 78
2004-04-01 06:34:18 51°15.982 2°53.154 2.6 71 10.2 100840 78
2004-04-01 06:34:24 51°16.004 2°53.141 2.3 76 10.2 100840 78
2004-04-01 06:34:29 51°16.021 2°53.129 2.8 82 10.2 100840 79
2004-04-01 06:34:34 51°16.039 2°53.118 2.4 76 10.2 100840 79
2004-04-01 06:34:38 51°16.053 2°53.109 2.7 82 10.2 100840 79
2004-04-01 06:34:44 51°16.074 2°53.095 2.9 98 10.2 100840 79
2004-04-01 06:34:48 51°16.089 2°53.087 3 79 10.1 100840 79
2004-04-01 06:34:54 51°16.11 2°53.076 3 89 10.1 100840 79
2004-04-01 06:34:58 51°16.125 2°53.068 3.2 84 10.2 100850 79
2004-04-01 06:35:04 51°16.146 2°53.057 3.6 94 10.2 100850 79
2004-04-01 06:35:08 51°16.161 2°53.05 3.6 87 10.2 100840 79
2004-04-01 06:35:14 51°16.183 2°53.039 3.4 87 10.2 100840 79
2004-04-01 06:35:18 51°16.197 2°53.032 3.2 99 10.1 100840 79
2004-04-01 06:35:24 51°16.219 2°53.021 4.2 93 10.1 100840 79
2004-04-01 06:35:28 51°16.233 2°53.014 3.9 100 10.1 100840 79
2004-04-01 06:35:34 51°16.255 2°53.004 3.8 86 10.1 100840 79
2004-04-01 06:35:38 51°16.27 2°52.998 3.5 78 10.1 100840 79
2004-04-01 06:35:44 51°16.291 2°52.988 3.7 91 10.1 100840 79
2004-04-01 06:35:49 51°16.31 2°52.979 3.6 85 10.1 100840 79
2004-04-01 06:35:54 51°16.328 2°52.97 3.5 88 10.1 100840 79
2004-04-01 06:35:58 51°16.342 2°52.963 3.2 83 10.1 100840 79
2004-04-01 06:36:02 51°16.356 2°52.956 3.4 95 10.1 100840 79
2004-04-01 06:36:08 51°16.378 2°52.946 2.8 90 10.1 100840 79
2004-04-01 06:36:13 51°16.396 2°52.937 3.9 98 10.1 100840 79
2004-04-01 06:36:18 51°16.414 2°52.929 3.3 82 10.1 100840 79
2004-04-01 06:36:24 51°16.436 2°52.919 2.9 81 10.1 100840 79
2004-04-01 06:36:28 51°16.45 2°52.912 3.1 74 10.1 100840 79
2004-04-01 06:36:34 51°16.471 2°52.901 3.4 86 10.1 100840 79
2004-04-01 06:36:38 51°16.486 2°52.894 3.8 81 10.1 100840 79
2004-04-01 06:36:44 51°16.508 2°52.884 3.7 76 10.1 100840 79
2004-04-01 06:36:48 51°16.522 2°52.877 3.3 70 10.1 100840 79
2004-04-01 06:36:53 51°16.54 2°52.869 3.4 65 10.1 100840 79
2004-04-01 06:36:58 51°16.558 2°52.86 3 71 10 100840 79
2004-04-01 06:37:04 51°16.58 2°52.849 3 72 10 100840 79
2004-04-01 06:37:08 51°16.594 2°52.842 3.2 77 10 100840 79
2004-04-01 06:37:14 51°16.615 2°52.831 2.8 74 10 100840 79
2004-04-01 06:37:18 51°16.629 2°52.824 3.2 80 10 100840 79
2004-04-01 06:37:24 51°16.651 2°52.814 3 71 10 100840 79
2004-04-01 06:37:28 51°16.665 2°52.806 3 79 10 100840 79
2004-04-01 06:37:34 51°16.686 2°52.796 3.5 65 10 100840 79
2004-04-01 06:37:38 51°16.701 2°52.789 3.4 86 10 100840 79
2004-04-01 06:37:44 51°16.722 2°52.778 3.5 80 10 100840 79
2004-04-01 06:37:48 51°16.736 2°52.771 3.4 79 10 100840 79
2004-04-01 06:37:54 51°16.758 2°52.76 2.9 73 10 100840 79
2004-04-01 06:37:58 51°16.772 2°52.754 3.7 83 10 100840 79
2004-04-01 06:38:04 51°16.793 2°52.743 3.2 77 10 100840 79
2004-04-01 06:38:08 51°16.807 2°52.736 2.9 75 10 100840 79
2004-04-01 06:38:14 51°16.828 2°52.726 3.1 81 10 100840 79
2004-04-01 06:38:18 51°16.842 2°52.718 2.9 73 10 100840 79
2004-04-01 06:38:24 51°16.862 2°52.707 3.6 83 10 100840 79
2004-04-01 06:38:28 51°16.876 2°52.699 3.5 80 10 100850 79
2004-04-01 06:38:33 51°16.894 2°52.691 3.6 85 10 100850 79
2004-04-01 06:38:38 51°16.911 2°52.682 3.2 81 9.9 100840 80
2004-04-01 06:38:44 51°16.933 2°52.672 4.1 83 9.9 100840 80
2004-04-01 06:38:48 51°16.947 2°52.665 3.6 81 9.9 100840 80
2004-04-01 06:38:53 51°16.965 2°52.657 4 83 9.9 100840 80
2004-04-01 06:38:58 51°16.983 2°52.649 4 77 9.9 100840 80
2004-04-01 06:39:04 51°17.005 2°52.64 3.6 74 9.9 100840 80
2004-04-01 06:39:08 51°17.019 2°52.635 4.1 81 9.9 100840 80
2004-04-01 06:39:14 51°17.041 2°52.627 3.6 78 9.9 100840 80
2004-04-01 06:39:18 51°17.056 2°52.621 4.5 84 9.9 100840 80
2004-04-01 06:39:24 51°17.077 2°52.614 4.3 82 9.9 100840 80
2004-04-01 06:39:28 51°17.092 2°52.609 4.2 82 9.9 100840 80
2004-04-01 06:39:33 51°17.11 2°52.603 3.6 71 9.9 100840 80
2004-04-01 06:39:38 51°17.128 2°52.596 3.8 74 9.9 100840 80
2004-04-01 06:39:44 51°17.15 2°52.588 3.9 91 9.9 100840 80
2004-04-01 06:39:49 51°17.167 2°52.581 3.5 82 9.9 100840 80
2004-04-01 06:39:54 51°17.186 2°52.573 4 80 9.9 100840 80
2004-04-01 06:39:58 51°17.2 2°52.567 3.6 77 9.9 100840 80
2004-04-01 06:40:04 51°17.221 2°52.559 3.1 77 9.9 100840 80
2004-04-01 06:40:08 51°17.236 2°52.553 3.9 78 9.9 100840 80
2004-04-01 06:40:13 51°17.254 2°52.546 4.3 82 9.9 100840 80
2004-04-01 06:40:18 51°17.272 2°52.539 3.3 82 9.9 100840 80
2004-04-01 06:40:24 51°17.294 2°52.531 3.3 78 9.9 100840 80
2004-04-01 06:40:28 51°17.308 2°52.525 3.6 79 9.9 100840 80
2004-04-01 06:40:33 51°17.326 2°52.518 3.9 79 9.9 100840 80
2004-04-01 06:40:38 51°17.344 2°52.511 3.9 74 9.9 100840 80
2004-04-01 06:40:44 51°17.366 2°52.503 3.7 80 9.9 100840 80
2004-04-01 06:40:48 51°17.381 2°52.497 4 79 9.9 100840 80
2004-04-01 06:40:54 51°17.402 2°52.489 3.9 80 9.9 100840 80
2004-04-01 06:40:58 51°17.417 2°52.483 3.6 79 9.8 100840 80
2004-04-01 06:41:04 51°17.439 2°52.475 4.3 87 9.8 100840 80
2004-04-01 06:41:08 51°17.453 2°52.469 3.5 78 9.9 100840 80
2004-04-01 06:41:14 51°17.475 2°52.463 4.6 84 9.9 100840 80
2004-04-01 06:41:18 51°17.49 2°52.458 4.1 80 9.8 100840 80
2004-04-01 06:41:24 51°17.512 2°52.453 4.4 79 9.8 100840 80
2004-04-01 06:41:28 51°17.526 2°52.45 3.9 77 9.8 100840 80
2004-04-01 06:41:34 51°17.549 2°52.446 4.6 79 9.8 100840 80
2004-04-01 06:41:38 51°17.563 2°52.443 4.8 72 9.8 100840 80
2004-04-01 06:41:44 51°17.585 2°52.438 4.2 74 9.8 100840 80
2004-04-01 06:41:48 51°17.6 2°52.435 4.1 80 9.8 100840 80
2004-04-01 06:41:53 51°17.619 2°52.432 5.8 87 9.8 100840 80
2004-04-01 06:41:58 51°17.637 2°52.43 4.4 81 9.8 100840 80
2004-04-01 06:42:04 51°17.659 2°52.428 5.4 76 9.8 100840 80
2004-04-01 06:42:08 51°17.674 2°52.427 4.7 76 9.8 100840 80
2004-04-01 06:42:14 51°17.696 2°52.427 5.7 81 9.8 100840 80
2004-04-01 06:42:18 51°17.711 2°52.426 5.4 70 9.8 100840 80
2004-04-01 06:42:24 51°17.733 2°52.426 5.2 77 9.8 100840 80
2004-04-01 06:42:29 51°17.752 2°52.426 5 71 9.8 100840 80
2004-04-01 06:42:34 51°17.77 2°52.425 4.9 73 9.8 100840 80
2004-04-01 06:42:38 51°17.785 2°52.425 5 76 9.8 100840 80
2004-04-01 06:42:44 51°17.808 2°52.427 5.6 77 9.8 100840 80
2004-04-01 06:42:48 51°17.822 2°52.428 5.5 79 9.8 100840 80
2004-04-01 06:42:53 51°17.841 2°52.43 5.6 79 9.8 100840 80
2004-04-01 06:42:58 51°17.859 2°52.433 5.1 75 9.8 100840 80
2004-04-01 06:43:04 51°17.881 2°52.436 5.7 75 9.8 100840 80
2004-04-01 06:43:08 51°17.896 2°52.439 6.1 74 9.8 100840 80
2004-04-01 06:43:13 51°17.914 2°52.442 5.6 74 9.8 100840 80
2004-04-01 06:43:19 51°17.936 2°52.448 5.7 72 9.8 100840 80
2004-04-01 06:43:24 51°17.955 2°52.452 6 71 9.8 100840 80
2004-04-01 06:43:28 51°17.969 2°52.456 5.8 77 9.8 100840 80
2004-04-01 06:43:34 51°17.991 2°52.461 6.4 75 9.8 100840 80
2004-04-01 06:43:38 51°18.006 2°52.465 5.8 73 9.8 100840 80
2004-04-01 06:43:44 51°18.028 2°52.471 5.8 72 9.8 100840 80
2004-04-01 06:43:48 51°18.042 2°52.474 6.5 79 9.8 100840 80
2004-04-01 06:43:54 51°18.065 2°52.48 5.9 77 9.8 100840 80
2004-04-01 06:43:58 51°18.079 2°52.484 5.6 69 9.8 100830 80
2004-04-01 06:44:04 51°18.101 2°52.49 6.5 79 9.8 100830 80
2004-04-01 06:44:08 51°18.115 2°52.496 7.3 70 9.8 100830 80
2004-04-01 06:44:14 51°18.137 2°52.506 6.5 75 9.8 100830 80
2004-04-01 06:44:18 51°18.151 2°52.514 7.7 68 9.8 100830 80
2004-04-01 06:44:24 51°18.172 2°52.526 7.8 62 9.8 100830 80
2004-04-01 06:44:29 51°18.189 2°52.536 7.7 68 9.8 100830 80
2004-04-01 06:44:34 51°18.206 2°52.547 7.3 66 9.8 100830 80
2004-04-01 06:44:38 51°18.22 2°52.556 7.7 63 9.8 100830 80
2004-04-01 06:44:44 51°18.241 2°52.569 7.6 65 9.8 100830 80
2004-04-01 06:44:48 51°18.255 2°52.578 7.4 70 9.8 100830 80
2004-04-01 06:44:54 51°18.275 2°52.591 8 65 9.8 100830 80
2004-04-01 06:44:58 51°18.289 2°52.601 8.3 68 9.8 100830 80
2004-04-01 06:45:04 51°18.308 2°52.617 8.7 63 9.8 100830 80
2004-04-01 06:45:08 51°18.321 2°52.629 9.4 63 9.8 100830 80
2004-04-01 06:45:13 51°18.336 2°52.646 9.2 64 9.8 100830 80
2004-04-01 06:45:18 51°18.351 2°52.663 9.6 67 9.7 100830 80
2004-04-01 06:45:24 51°18.368 2°52.686 10.6 61 9.7 100830 80
2004-04-01 06:45:28 51°18.379 2°52.702 10.8 61 9.7 100830 80
2004-04-01 06:45:34 51°18.394 2°52.728 10.5 54 9.7 100830 80
2004-04-01 06:45:38 51°18.403 2°52.746 10.2 51 9.7 100820 80
2004-04-01 06:45:44 51°18.417 2°52.773 10.8 55 9.7 100820 80
2004-04-01 06:45:48 51°18.427 2°52.791 11.3 53 9.7 100820 81
2004-04-01 06:45:53 51°18.438 2°52.814 11.5 52 9.7 100820 81
2004-04-01 06:45:58 51°18.449 2°52.837 11.1 55 9.8 100820 81
2004-04-01 06:46:04 51°18.462 2°52.865 10.5 53 9.8 100820 81
2004-04-01 06:46:08 51°18.471 2°52.884 10.9 52 9.8 100820 81
2004-04-01 06:46:13 51°18.482 2°52.907 11.1 55 9.8 100820 81
2004-04-01 06:46:18 51°18.493 2°52.931 11.3 50 9.8 100810 81
2004-04-01 06:46:24 51°18.506 2°52.96 10.8 52 9.8 100810 81
2004-04-01 06:46:28 51°18.514 2°52.979 11 54 9.8 100820 81
2004-04-01 06:46:34 51°18.526 2°53.009 11.1 52 9.8 100820 81
2004-04-01 06:46:38 51°18.534 2°53.029 10.9 48 9.8 100820 81
2004-04-01 06:46:44 51°18.546 2°53.059 11.2 50 9.8 100820 81
2004-04-01 06:46:48 51°18.554 2°53.079 10.9 51 9.8 100810 81
2004-04-01 06:46:53 51°18.564 2°53.104 10.8 51 9.8 100810 81
2004-04-01 06:46:58 51°18.574 2°53.129 11.4 52 9.8 100810 81
2004-04-01 06:47:04 51°18.586 2°53.159 11.1 49 9.8 100810 81
2004-04-01 06:47:09 51°18.596 2°53.184 11.2 51 9.7 100810 81
2004-04-01 06:47:14 51°18.606 2°53.21 11 52 9.7 100810 81
2004-04-01 06:47:18 51°18.614 2°53.229 11.8 54 9.8 100820 81
2004-04-01 06:47:24 51°18.626 2°53.259 11 46 9.8 100820 81
2004-04-01 06:47:28 51°18.634 2°53.279 11.2 49 9.7 100810 81
2004-04-01 06:47:33 51°18.644 2°53.304 11.5 48 9.7 100810 81
2004-04-01 06:47:38 51°18.654 2°53.33 11.6 51 9.8 100820 81
2004-04-01 06:47:44 51°18.666 2°53.36 11.8 51 9.8 100820 81
2004-04-01 06:47:49 51°18.675 2°53.386 11.2 54 9.8 100810 81
2004-04-01 06:47:54 51°18.684 2°53.412 11.6 46 9.8 100810 81
2004-04-01 06:47:58 51°18.69 2°53.434 12.1 46 9.8 100820 81
2004-04-01 06:48:04 51°18.7 2°53.466 11.3 43 9.8 100820 81
2004-04-01 06:48:08 51°18.706 2°53.488 12.2 45 9.8 100820 81
2004-04-01 06:48:13 51°18.713 2°53.516 12.4 45 9.8 100820 81
2004-04-01 06:48:18 51°18.72 2°53.543 12.3 48 9.8 100820 81
2004-04-01 06:48:24 51°18.729 2°53.576 12.1 47 9.8 100820 81
2004-04-01 06:48:29 51°18.736 2°53.604 11.4 49 9.8 100820 81
2004-04-01 06:48:34 51°18.744 2°53.631 11.9 44 9.8 100820 81
2004-04-01 06:48:38 51°18.75 2°53.653 11.9 49 9.8 100820 81
2004-04-01 06:48:44 51°18.758 2°53.686 11.7 45 9.8 100820 81
2004-04-01 06:48:48 51°18.764 2°53.708 11.6 50 9.8 100820 81
2004-04-01 06:48:54 51°18.773 2°53.741 11.5 45 9.8 100820 81
2004-04-01 06:48:58 51°18.78 2°53.763 11.4 47 9.8 100820 81
2004-04-01 06:49:04 51°18.789 2°53.796 11.4 43 9.8 100820 81
2004-04-01 06:49:08 51°18.795 2°53.818 11.2 44 9.8 100820 81
2004-04-01 06:49:14 51°18.804 2°53.851 11.6 43 9.8 100820 81
2004-04-01 06:49:18 51°18.81 2°53.873 11.6 49 9.8 100820 81
2004-04-01 06:49:24 51°18.819 2°53.906 12.5 46 9.8 100820 81
2004-04-01 06:49:28 51°18.825 2°53.927 11.9 47 9.8 100820 81
2004-04-01 06:49:34 51°18.834 2°53.96 11 45 9.8 100820 81
2004-04-01 06:49:38 51°18.84 2°53.982 10.8 43 9.8 100830 81
2004-04-01 06:49:44 51°18.85 2°54.015 10.9 44 9.8 100830 81
2004-04-01 06:49:48 51°18.856 2°54.037 11.2 40 9.8 100830 81
2004-04-01 06:49:54 51°18.865 2°54.07 11.5 47 9.8 100830 81
2004-04-01 06:49:58 51°18.871 2°54.092 11.1 43 9.8 100820 81
2004-04-01 06:50:04 51°18.881 2°54.125 11.1 45 9.8 100820 81
2004-04-01 06:50:08 51°18.887 2°54.147 11.4 45 9.8 100820 81
2004-04-01 06:50:14 51°18.897 2°54.18 10.9 44 9.8 100820 81
2004-04-01 06:50:18 51°18.903 2°54.202 11.5 44 9.8 100830 81
2004-04-01 06:50:24 51°18.912 2°54.235 11.3 44 9.8 100830 81
2004-04-01 06:50:29 51°18.92 2°54.262 11.2 48 9.8 100820 81
2004-04-01 06:50:34 51°18.928 2°54.289 11.6 44 9.8 100820 81
2004-04-01 06:50:38 51°18.934 2°54.311 11.6 48 9.8 100820 81
2004-04-01 06:50:44 51°18.943 2°54.344 11.3 43 9.8 100820 81
2004-04-01 06:50:49 51°18.951 2°54.372 12.3 47 9.8 100820 81
2004-04-01 06:50:54 51°18.959 2°54.399 11.2 43 9.8 100820 81
2004-04-01 06:50:58 51°18.965 2°54.421 11.2 42 9.8 100820 81
2004-04-01 06:51:04 51°18.975 2°54.453 11.5 46 9.8 100820 81
2004-04-01 06:51:08 51°18.981 2°54.475 11.5 44 9.8 100820 81
2004-04-01 06:51:14 51°18.991 2°54.508 11.6 49 9.8 100820 81
2004-04-01 06:51:18 51°18.997 2°54.53 11.9 49 9.8 100820 81
2004-04-01 06:51:24 51°19.007 2°54.562 11.3 41 9.8 100820 81
2004-04-01 06:51:29 51°19.015 2°54.589 12.3 46 9.8 100830 81
2004-04-01 06:51:34 51°19.023 2°54.617 11 45 9.8 100830 81
2004-04-01 06:51:38 51°19.029 2°54.638 11.9 45 9.8 100820 81
2004-04-01 06:51:44 51°19.039 2°54.671 12.1 46 9.8 100820 81
2004-04-01 06:51:48 51°19.045 2°54.693 11.8 45 9.8 100820 81
2004-04-01 06:51:54 51°19.055 2°54.725 12.6 50 9.8 100820 81
2004-04-01 06:51:58 51°19.061 2°54.746 11.8 50 9.9 100820 81
2004-04-01 06:52:04 51°19.071 2°54.779 11.7 47 9.9 100820 81
2004-04-01 06:52:08 51°19.077 2°54.801 11.3 49 9.9 100820 81
2004-04-01 06:52:14 51°19.087 2°54.833 11.2 47 9.9 100820 81
2004-04-01 06:52:18 51°19.093 2°54.855 11.2 47 9.9 100820 81
2004-04-01 06:52:24 51°19.103 2°54.887 11.6 45 9.9 100820 81
2004-04-01 06:52:28 51°19.11 2°54.909 11.6 49 9.9 100820 81
2004-04-01 06:52:34 51°19.119 2°54.941 11.1 43 9.9 100820 81
2004-04-01 06:52:38 51°19.126 2°54.963 11.5 49 9.9 100810 81
2004-04-01 06:52:44 51°19.135 2°54.995 11.6 48 9.9 100810 81
2004-04-01 06:52:48 51°19.142 2°55.017 11.4 45 9.9 100820 81
2004-04-01 06:52:54 51°19.151 2°55.05 12.3 48 9.9 100820 81
2004-04-01 06:52:58 51°19.158 2°55.071 11.7 52 9.9 100820 81
2004-04-01 06:53:04 51°19.167 2°55.104 11.9 48 9.9 100820 81
2004-04-01 06:53:09 51°19.175 2°55.131 11.4 49 9.9 100810 81
2004-04-01 06:53:14 51°19.183 2°55.158 11.2 44 9.9 100810 81
2004-04-01 06:53:18 51°19.189 2°55.18 11.6 47 9.9 100820 81
2004-04-01 06:53:24 51°19.199 2°55.213 12 45 9.9 100820 81
2004-04-01 06:53:28 51°19.205 2°55.234 11.9 50 10 100820 81
2004-04-01 06:53:34 51°19.215 2°55.267 11.5 47 10 100820 81
2004-04-01 06:53:38 51°19.222 2°55.288 11.2 42 10 100820 81
2004-04-01 06:53:44 51°19.232 2°55.321 11.2 48 10 100820 81
2004-04-01 06:53:48 51°19.238 2°55.342 11.3 48 10 100820 81
2004-04-01 06:53:53 51°19.246 2°55.37 11.1 43 10 100820 81
2004-04-01 06:53:58 51°19.254 2°55.397 11.2 44 10 100830 81
2004-04-01 06:54:04 51°19.264 2°55.429 11.7 46 10 100830 81
2004-04-01 06:54:08 51°19.27 2°55.451 11.6 44 10 100820 81
2004-04-01 06:54:14 51°19.28 2°55.483 11.2 45 10 100820 81
2004-04-01 06:54:18 51°19.286 2°55.505 11.1 47 10 100820 81
2004-04-01 06:54:24 51°19.296 2°55.538 11 43 10 100820 81
2004-04-01 06:54:28 51°19.302 2°55.56 11.1 44 10 100820 81
2004-04-01 06:54:34 51°19.311 2°55.592 11.5 46 10 100820 81
2004-04-01 06:54:38 51°19.318 2°55.614 11.3 50 10 100820 81
2004-04-01 06:54:44 51°19.328 2°55.647 11.2 44 10 100820 81
2004-04-01 06:54:48 51°19.334 2°55.669 11.7 46 10 100820 81
2004-04-01 06:54:54 51°19.344 2°55.701 11.5 47 10 100820 81
2004-04-01 06:54:58 51°19.35 2°55.723 11.3 49 10.1 100820 81
2004-04-01 06:55:04 51°19.36 2°55.755 10.9 47 10.1 100820 81
2004-04-01 06:55:08 51°19.366 2°55.778 11.2 46 10 100820 81
2004-04-01 06:55:14 51°19.376 2°55.81 11 47 10 100820 81
2004-04-01 06:55:18 51°19.382 2°55.832 11.4 49 10 100820 81
2004-04-01 06:55:24 51°19.392 2°55.865 12.2 48 10 100820 81
2004-04-01 06:55:28 51°19.399 2°55.887 11.4 51 10 100820 81
2004-04-01 06:55:34 51°19.408 2°55.92 11.6 43 10 100820 81
2004-04-01 06:55:38 51°19.415 2°55.941 11.9 48 10 100820 81
2004-04-01 06:55:44 51°19.424 2°55.974 11.3 45 10 100820 81
2004-04-01 06:55:48 51°19.43 2°55.996 12.5 46 10 100830 81
2004-04-01 06:55:54 51°19.44 2°56.029 11 52 10 100830 81
2004-04-01 06:55:58 51°19.446 2°56.05 11.3 47 10 100820 81
2004-04-01 06:56:04 51°19.456 2°56.083 11.4 45 10 100820 81
2004-04-01 06:56:09 51°19.465 2°56.11 11.2 44 10.1 100820 81
2004-04-01 06:56:14 51°19.473 2°56.137 11.6 47 10.1 100820 81
2004-04-01 06:56:18 51°19.48 2°56.159 11.7 47 10.1 100820 81
2004-04-01 06:56:24 51°19.489 2°56.191 11.6 48 10.1 100820 81
2004-04-01 06:56:28 51°19.496 2°56.213 11.7 46 10.1 100820 81
2004-04-01 06:56:34 51°19.506 2°56.246 11.5 49 10.1 100820 81
2004-04-01 06:56:38 51°19.512 2°56.268 11.5 49 10.1 100820 81
2004-04-01 06:56:44 51°19.522 2°56.3 11.2 48 10.1 100820 81
2004-04-01 06:56:48 51°19.528 2°56.322 11.3 47 10.1 100820 81
2004-04-01 06:56:54 51°19.538 2°56.355 10.6 41 10.1 100820 81
2004-04-01 06:56:58 51°19.545 2°56.376 11.1 43 10.1 100820 81
2004-04-01 06:57:04 51°19.554 2°56.409 11.3 45 10.1 100820 81
2004-04-01 06:57:08 51°19.56 2°56.431 11.4 44 10.1 100820 81
2004-04-01 06:57:14 51°19.57 2°56.463 10.7 47 10.1 100820 81
2004-04-01 06:57:18 51°19.577 2°56.485 11.7 47 10.1 100830 81
2004-04-01 06:57:24 51°19.587 2°56.518 11 49 10.1 100830 81
2004-04-01 06:57:28 51°19.593 2°56.539 11.4 47 10.1 100830 81
2004-04-01 06:57:34 51°19.603 2°56.572 11.2 45 10.1 100830 81
2004-04-01 06:57:38 51°19.61 2°56.594 11.2 44 10.1 100820 81
2004-04-01 06:57:44 51°19.619 2°56.626 11.3 44 10.1 100820 81
2004-04-01 06:57:48 51°19.626 2°56.648 10.8 45 10.1 100830 81
2004-04-01 06:57:54 51°19.635 2°56.681 11.2 43 10.1 100830 81
2004-04-01 06:57:58 51°19.642 2°56.703 11.2 44 10.2 100830 81
2004-04-01 06:58:04 51°19.652 2°56.735 11.1 45 10.2 100830 81
2004-04-01 06:58:08 51°19.658 2°56.757 10.9 46 10.2 100830 81
2004-04-01 06:58:14 51°19.668 2°56.79 11 45 10.2 100830 81
2004-04-01 06:58:18 51°19.674 2°56.811 11.2 46 10.2 100830 81
2004-04-01 06:58:24 51°19.684 2°56.844 10.9 44 10.2 100830 81
2004-04-01 06:58:28 51°19.69 2°56.866 11 42 10.2 100820 81
2004-04-01 06:58:33 51°19.698 2°56.893 10.5 44 10.2 100820 81
2004-04-01 06:58:38 51°19.706 2°56.92 10.8 46 10.2 100830 81
2004-04-01 06:58:44 51°19.716 2°56.953 11 46 10.2 100830 81
2004-04-01 06:58:48 51°19.722 2°56.975 11.3 44 10.2 100830 81
2004-04-01 06:58:54 51°19.732 2°57.008 11.3 45 10.2 100830 81
2004-04-01 06:58:58 51°19.738 2°57.03 11.3 44 10.2 100830 81
2004-04-01 06:59:04 51°19.748 2°57.062 11.5 42 10.2 100830 81
2004-04-01 06:59:08 51°19.754 2°57.084 10.7 46 10.2 100830 81
2004-04-01 06:59:14 51°19.764 2°57.117 11 43 10.2 100830 81
2004-04-01 06:59:18 51°19.77 2°57.139 11.2 42 10.2 100830 81
2004-04-01 06:59:23 51°19.778 2°57.166 11.1 43 10.2 100830 81
2004-04-01 06:59:28 51°19.786 2°57.194 11.1 41 10.2 100830 81
2004-04-01 06:59:34 51°19.796 2°57.227 10.3 40 10.2 100830 81
2004-04-01 06:59:38 51°19.802 2°57.249 11 43 10.2 100830 81
2004-04-01 06:59:44 51°19.812 2°57.281 11.3 45 10.2 100830 81
2004-04-01 06:59:48 51°19.818 2°57.303 10.8 41 10.2 100830 81
2004-04-01 06:59:53 51°19.826 2°57.33 11 39 10.2 100830 81
2004-04-01 06:59:58 51°19.834 2°57.357 11.3 44 10.2 100830 81
2004-04-01 07:00:04 51°19.844 2°57.39 10.9 39 10.2 100830 81
2004-04-01 07:00:09 51°19.851 2°57.417 11.2 42 10.2 100830 81
2004-04-01 07:00:14 51°19.859 2°57.445 11 42 10.2 100830 81
2004-04-01 07:00:18 51°19.866 2°57.467 11.1 44 10.2 100830 81
2004-04-01 07:00:24 51°19.875 2°57.5 11 44 10.2 100830 81
2004-04-01 07:00:28 51°19.882 2°57.521 11.6 44 10.2 100830 81
2004-04-01 07:00:34 51°19.891 2°57.554 11.5 46 10.2 100830 81
2004-04-01 07:00:38 51°19.898 2°57.576 11.5 45 10.2 100830 81
2004-04-01 07:00:42 51°19.904 2°57.598 10.8 40 10.2 100830 81
2004-04-01 07:00:49 51°19.914 2°57.637 10.9 44 10.2 100830 81
2004-04-01 07:00:54 51°19.921 2°57.665 11 40 10.2 100830 81
2004-04-01 07:00:58 51°19.927 2°57.687 11 41 10.2 100830 81
2004-04-01 07:01:04 51°19.935 2°57.721 11.4 40 10.2 100830 81
2004-04-01 07:01:08 51°19.941 2°57.744 11.4 43 10.2 100830 81
2004-04-01 07:01:14 51°19.949 2°57.777 10.5 41 10.2 100830 81
2004-04-01 07:01:18 51°19.954 2°57.799 11 42 10.2 100830 81
2004-04-01 07:01:24 51°19.963 2°57.833 10.8 44 10.2 100830 81
2004-04-01 07:01:28 51°19.968 2°57.855 10.9 38 10.2 100830 81
2004-04-01 07:01:33 51°19.975 2°57.884 11.2 43 10.2 100830 81
2004-04-01 07:01:38 51°19.982 2°57.912 11.3 41 10.2 100840 81
2004-04-01 07:01:44 51°19.99 2°57.945 10.9 41 10.2 100840 81
2004-04-01 07:01:48 51°19.995 2°57.967 10.9 41 10.2 100830 81
2004-04-01 07:01:53 51°20.003 2°57.995 10.7 37 10.2 100830 81
2004-04-01 07:01:58 51°20.009 2°58.023 10.8 40 10.2 100830 81
2004-04-01 07:02:04 51°20.018 2°58.057 11 38 10.2 100830 81
2004-04-01 07:02:08 51°20.023 2°58.079 10.8 41 10.2 100840 81
2004-04-01 07:02:14 51°20.031 2°58.113 11.3 38 10.2 100840 81
2004-04-01 07:02:18 51°20.037 2°58.135 11 41 10.2 100840 81
2004-04-01 07:02:23 51°20.044 2°58.163 11 43 10.2 100840 81
2004-04-01 07:02:29 51°20.052 2°58.196 11.4 41 10.2 100840 81
2004-04-01 07:02:34 51°20.059 2°58.224 10.5 40 10.2 100840 81
2004-04-01 07:02:38 51°20.064 2°58.247 11.2 40 10.2 100840 81
2004-04-01 07:02:44 51°20.073 2°58.28 10.7 41 10.2 100840 81
2004-04-01 07:02:48 51°20.079 2°58.302 10.9 38 10.2 100840 81
2004-04-01 07:02:53 51°20.085 2°58.33 10.6 36 10.2 100840 81
2004-04-01 07:02:58 51°20.092 2°58.358 10.8 42 10.2 100840 81
2004-04-01 07:03:04 51°20.1 2°58.391 10.6 39 10.2 100840 81
2004-04-01 07:03:08 51°20.106 2°58.414 11.2 38 10.2 100840 81
2004-04-01 07:03:14 51°20.114 2°58.447 11.4 41 10.2 100840 81
2004-04-01 07:03:18 51°20.12 2°58.469 10.9 39 10.2 100840 81
2004-04-01 07:03:24 51°20.128 2°58.502 11.1 38 10.2 100840 81
2004-04-01 07:03:28 51°20.134 2°58.524 10.5 39 10.2 100840 81
2004-04-01 07:03:34 51°20.142 2°58.558 11.1 39 10.2 100840 81
2004-04-01 07:03:38 51°20.147 2°58.58 11 37 10.2 100840 81
2004-04-01 07:03:44 51°20.156 2°58.613 11.3 38 10.2 100840 81
2004-04-01 07:03:48 51°20.161 2°58.635 10.6 39 10.2 100840 81
2004-04-01 07:03:54 51°20.17 2°58.669 11.2 38 10.2 100840 81
2004-04-01 07:03:58 51°20.175 2°58.691 10.8 42 10.2 100830 81
2004-04-01 07:04:04 51°20.184 2°58.724 11.4 38 10.2 100830 81
2004-04-01 07:04:08 51°20.19 2°58.746 10.9 39 10.2 100840 81
2004-04-01 07:04:13 51°20.196 2°58.774 11.3 36 10.2 100840 81
2004-04-01 07:04:18 51°20.203 2°58.802 11.4 38 10.2 100840 81
2004-04-01 07:04:24 51°20.211 2°58.836 11.6 41 10.2 100840 81
2004-04-01 07:04:28 51°20.216 2°58.859 11.2 36 10.2 100840 81
2004-04-01 07:04:33 51°20.222 2°58.887 10.7 38 10.2 100840 81
2004-04-01 07:04:38 51°20.228 2°58.915 11.2 37 10.2 100840 81
2004-04-01 07:04:44 51°20.235 2°58.949 11 38 10.2 100840 81
2004-04-01 07:04:49 51°20.241 2°58.978 11.4 36 10.2 100840 81
2004-04-01 07:04:54 51°20.247 2°59.006 11.4 39 10.2 100840 81
2004-04-01 07:04:58 51°20.252 2°59.029 11.7 38 10.1 100840 81
2004-04-01 07:05:04 51°20.259 2°59.063 11.7 40 10.1 100840 81
2004-04-01 07:05:08 51°20.263 2°59.086 11 38 10.2 100840 81
2004-04-01 07:05:14 51°20.271 2°59.12 11.5 36 10.2 100840 81
2004-04-01 07:05:18 51°20.275 2°59.143 11.6 37 10.1 100840 81
2004-04-01 07:05:24 51°20.282 2°59.178 11.2 37 10.1 100840 81
2004-04-01 07:05:28 51°20.287 2°59.201 11.4 37 10.1 100840 81
2004-04-01 07:05:34 51°20.295 2°59.235 11.1 36 10.1 100840 81
2004-04-01 07:05:38 51°20.3 2°59.258 11.6 39 10.1 100840 81
2004-04-01 07:05:44 51°20.308 2°59.292 12 39 10.1 100840 81
2004-04-01 07:05:48 51°20.313 2°59.314 11.2 39 10.1 100840 81
2004-04-01 07:05:54 51°20.32 2°59.349 11.2 37 10.1 100840 81
2004-04-01 07:05:58 51°20.325 2°59.372 11.4 38 10.2 100840 81
2004-04-01 07:06:04 51°20.332 2°59.406 11.1 36 10.2 100840 81
2004-04-01 07:06:08 51°20.337 2°59.428 10.8 36 10.1 100840 81
2004-04-01 07:06:14 51°20.345 2°59.463 11.2 37 10.1 100840 81
2004-04-01 07:06:18 51°20.35 2°59.485 11.2 37 10.2 100840 81
2004-04-01 07:06:24 51°20.358 2°59.519 11.9 38 10.2 100840 81
2004-04-01 07:06:29 51°20.364 2°59.548 11.7 36 10.2 100840 81
2004-04-01 07:06:34 51°20.37 2°59.576 10.8 37 10.2 100840 81
2004-04-01 07:06:37 51°20.374 2°59.593 11.5 34 10.2 100850 81
2004-04-01 07:06:44 51°20.382 2°59.633 11.4 37 10.2 100850 81
2004-04-01 07:06:48 51°20.388 2°59.656 11.4 36 10.2 100840 81
2004-04-01 07:06:53 51°20.394 2°59.684 11.4 34 10.2 100840 81
2004-04-01 07:06:58 51°20.4 2°59.712 11.2 36 10.2 100850 81
2004-04-01 07:07:04 51°20.408 2°59.747 11.5 37 10.2 100850 81
2004-04-01 07:07:08 51°20.413 2°59.77 11.3 37 10.2 100840 81
2004-04-01 07:07:13 51°20.419 2°59.798 11.5 37 10.2 100840 81
2004-04-01 07:07:18 51°20.425 2°59.827 11.3 38 10.2 100840 81
2004-04-01 07:07:24 51°20.433 2°59.861 11.4 37 10.2 100840 81
2004-04-01 07:07:28 51°20.438 2°59.883 11.4 37 10.2 100840 81
2004-04-01 07:07:34 51°20.445 2°59.918 11.1 37 10.2 100840 81
2004-04-01 07:07:38 51°20.45 2°59.94 11.4 36 10.2 100840 81
2004-04-01 07:07:44 51°20.458 2°59.974 11.4 37 10.2 100840 81
2004-04-01 07:07:48 51°20.463 2°59.997 11.1 39 10.2 100840 81
2004-04-01 07:07:54 51°20.47 3°0.031 11.6 40 10.2 100840 81
2004-04-01 07:07:58 51°20.475 3°0.054 11.5 36 10.2 100840 81
2004-04-01 07:08:04 51°20.483 3°0.088 11.4 36 10.2 100840 81
2004-04-01 07:08:09 51°20.49 3°0.116 11.9 40 10.2 100840 81
2004-04-01 07:08:14 51°20.496 3°0.145 11.9 38 10.2 100840 81
2004-04-01 07:08:18 51°20.501 3°0.167 11.5 39 10.2 100840 81
2004-04-01 07:08:24 51°20.509 3°0.202 11 37 10.2 100840 81
2004-04-01 07:08:28 51°20.514 3°0.224 11.5 39 10.2 100850 81
2004-04-01 07:08:33 51°20.52 3°0.253 11.4 38 10.2 100850 81
2004-04-01 07:08:38 51°20.527 3°0.282 11.6 37 10.2 100840 81
2004-04-01 07:08:44 51°20.534 3°0.315 11.4 38 10.2 100840 81
2004-04-01 07:08:48 51°20.539 3°0.338 11.4 36 10.2 100840 81
2004-04-01 07:08:52 51°20.544 3°0.361 11.7 37 10.2 100840 81
2004-04-01 07:08:58 51°20.552 3°0.395 11.4 38 10.2 100850 81
2004-04-01 07:09:04 51°20.559 3°0.429 11.4 36 10.2 100850 81
2004-04-01 07:09:08 51°20.564 3°0.452 11.2 37 10.3 100850 81
2004-04-01 07:09:13 51°20.571 3°0.48 11.2 40 10.3 100850 81
2004-04-01 07:09:18 51°20.577 3°0.508 11.8 38 10.2 100840 81
2004-04-01 07:09:24 51°20.585 3°0.542 10.8 37 10.2 100840 81
2004-04-01 07:09:29 51°20.591 3°0.571 10.9 37 10.2 100850 81
2004-04-01 07:09:34 51°20.598 3°0.599 11.4 38 10.2 100850 81
2004-04-01 07:09:38 51°20.602 3°0.622 11.5 38 10.2 100850 81
2004-04-01 07:09:44 51°20.61 3°0.656 11.4 35 10.2 100850 81
2004-04-01 07:09:48 51°20.614 3°0.679 11.5 37 10.3 100840 81
2004-04-01 07:09:53 51°20.619 3°0.708 11.7 33 10.3 100840 81
2004-04-01 07:09:58 51°20.624 3°0.737 11.2 34 10.3 100840 81
2004-04-01 07:10:04 51°20.63 3°0.772 11 36 10.3 100840 81
2004-04-01 07:10:08 51°20.633 3°0.795 11.5 35 10.2 100850 81
2004-04-01 07:10:13 51°20.638 3°0.825 11.9 36 10.2 100850 81
2004-04-01 07:10:18 51°20.642 3°0.854 11.3 36 10.3 100850 81
2004-04-01 07:10:24 51°20.648 3°0.889 11.5 34 10.3 100850 81
2004-04-01 07:10:29 51°20.652 3°0.918 12 35 10.3 100850 81
2004-04-01 07:10:34 51°20.657 3°0.947 11.7 34 10.3 100850 81
2004-04-01 07:10:38 51°20.66 3°0.971 11 33 10.3 100850 81
2004-04-01 07:10:44 51°20.666 3°1.006 12 33 10.3 100850 81
2004-04-01 07:10:48 51°20.669 3°1.029 12.4 36 10.3 100850 81
2004-04-01 07:10:53 51°20.674 3°1.059 12.1 35 10.3 100850 81
2004-04-01 07:10:58 51°20.679 3°1.088 11.8 34 10.3 100850 81
2004-04-01 07:11:04 51°20.684 3°1.123 11.7 35 10.3 100850 81
2004-04-01 07:11:09 51°20.689 3°1.152 12.4 35 10.3 100850 81
2004-04-01 07:11:14 51°20.693 3°1.182 11.7 35 10.3 100850 81
2004-04-01 07:11:18 51°20.697 3°1.205 12 34 10.3 100850 81
2004-04-01 07:11:24 51°20.703 3°1.24 11.5 33 10.3 100850 81
2004-04-01 07:11:28 51°20.706 3°1.264 11.8 37 10.3 100850 81
2004-04-01 07:11:34 51°20.712 3°1.299 11.2 31 10.3 100850 81
2004-04-01 07:11:38 51°20.715 3°1.323 11.2 33 10.3 100840 81
2004-04-01 07:11:44 51°20.721 3°1.358 11.6 34 10.3 100840 81
2004-04-01 07:11:48 51°20.725 3°1.382 11.9 33 10.3 100850 81
2004-04-01 07:11:54 51°20.73 3°1.416 11.7 34 10.3 100850 81
2004-04-01 07:11:58 51°20.734 3°1.44 11.9 35 10.4 100840 81
2004-04-01 07:12:04 51°20.74 3°1.475 11.4 32 10.4 100840 81
2004-04-01 07:12:08 51°20.744 3°1.498 11.4 33 10.3 100850 81
2004-04-01 07:12:13 51°20.749 3°1.527 12.4 34 10.3 100850 81
2004-04-01 07:12:18 51°20.754 3°1.556 12 36 10.3 100850 81
2004-04-01 07:12:24 51°20.76 3°1.591 11.9 37 10.3 100850 81
2004-04-01 07:12:28 51°20.764 3°1.615 11.9 35 10.3 100850 81
2004-04-01 07:12:33 51°20.769 3°1.644 12.2 34 10.3 100850 81
2004-04-01 07:12:38 51°20.774 3°1.674 12.3 34 10.3 100850 81
2004-04-01 07:12:44 51°20.78 3°1.709 12.1 35 10.3 100850 81
2004-04-01 07:12:48 51°20.784 3°1.733 11.7 34 10.3 100850 81
2004-04-01 07:12:53 51°20.789 3°1.762 11.6 34 10.3 100850 81
2004-04-01 07:12:58 51°20.794 3°1.791 12 35 10.3 100850 81
2004-04-01 07:13:04 51°20.8 3°1.826 12 35 10.3 100850 81
2004-04-01 07:13:08 51°20.804 3°1.85 12.2 35 10.3 100850 81
2004-04-01 07:13:14 51°20.81 3°1.884 11.3 34 10.3 100850 81
2004-04-01 07:13:18 51°20.814 3°1.908 12 31 10.3 100850 81
2004-04-01 07:13:24 51°20.82 3°1.943 11.9 33 10.3 100850 81
2004-04-01 07:13:28 51°20.824 3°1.967 12.3 35 10.3 100850 81
2004-04-01 07:13:33 51°20.829 3°1.996 12.2 34 10.3 100850 81
2004-04-01 07:13:38 51°20.834 3°2.025 11.9 34 10.3 100850 81
2004-04-01 07:13:44 51°20.84 3°2.06 11.7 34 10.3 100850 81
2004-04-01 07:13:48 51°20.844 3°2.083 12 33 10.3 100850 81
2004-04-01 07:13:54 51°20.849 3°2.119 11.8 33 10.3 100850 81
2004-04-01 07:13:58 51°20.853 3°2.142 12.1 32 10.3 100850 81
2004-04-01 07:14:04 51°20.857 3°2.178 11.7 32 10.3 100850 81
2004-04-01 07:14:08 51°20.86 3°2.202 12.3 30 10.3 100850 81
2004-04-01 07:14:14 51°20.862 3°2.238 12.1 29 10.3 100850 81
2004-04-01 07:14:18 51°20.864 3°2.262 11.7 28 10.3 100850 81
2004-04-01 07:14:24 51°20.865 3°2.299 11.5 28 10.3 100850 81
2004-04-01 07:14:28 51°20.866 3°2.323 11.5 28 10.3 100850 81
2004-04-01 07:14:33 51°20.866 3°2.353 11.5 28 10.3 100850 81
2004-04-01 07:14:38 51°20.867 3°2.384 12 31 10.3 100850 81
2004-04-01 07:14:44 51°20.868 3°2.42 12 27 10.3 100850 81
2004-04-01 07:14:48 51°20.869 3°2.444 11.7 28 10.3 100850 81
2004-04-01 07:14:53 51°20.87 3°2.475 11.9 25 10.3 100850 81
2004-04-01 07:14:58 51°20.871 3°2.505 12.1 31 10.3 100860 81
2004-04-01 07:15:04 51°20.871 3°2.541 12.3 30 10.3 100860 81
2004-04-01 07:15:08 51°20.872 3°2.565 11.7 29 10.3 100850 81
2004-04-01 07:15:14 51°20.874 3°2.601 12.5 26 10.3 100850 81
2004-04-01 07:15:18 51°20.874 3°2.625 11.7 27 10.3 100850 81
2004-04-01 07:15:24 51°20.875 3°2.662 12.1 28 10.3 100850 81
2004-04-01 07:15:28 51°20.876 3°2.686 12.6 31 10.3 100850 81
2004-04-01 07:15:32 51°20.877 3°2.711 13 30 10.3 100850 81
2004-04-01 07:15:38 51°20.878 3°2.747 11.7 28 10.3 100850 81
2004-04-01 07:15:44 51°20.88 3°2.783 12.9 29 10.3 100850 81
2004-04-01 07:15:48 51°20.88 3°2.807 12.6 28 10.3 100850 81
2004-04-01 07:15:53 51°20.882 3°2.838 13.1 30 10.3 100850 81
2004-04-01 07:15:58 51°20.883 3°2.868 12.8 32 10.3 100850 81
2004-04-01 07:16:04 51°20.884 3°2.904 12.7 33 10.3 100850 81
2004-04-01 07:16:08 51°20.885 3°2.928 12.9 32 10.3 100850 81
2004-04-01 07:16:14 51°20.886 3°2.965 12.6 32 10.3 100850 81
2004-04-01 07:16:18 51°20.887 3°2.989 13 30 10.3 100850 81
2004-04-01 07:16:24 51°20.888 3°3.025 12.4 32 10.3 100850 81
2004-04-01 07:16:29 51°20.889 3°3.055 12.5 31 10.3 100850 81
2004-04-01 07:16:33 51°20.89 3°3.08 12.2 30 10.3 100850 81
2004-04-01 07:16:38 51°20.891 3°3.11 12.8 33 10.4 100850 81
2004-04-01 07:16:44 51°20.892 3°3.147 12.1 30 10.4 100850 81
2004-04-01 07:16:49 51°20.894 3°3.177 12.9 30 10.4 100850 81
2004-04-01 07:16:54 51°20.895 3°3.207 12.8 31 10.4 100850 81
2004-04-01 07:16:58 51°20.896 3°3.231 13.3 31 10.3 100850 81
2004-04-01 07:17:02 51°20.897 3°3.253 12.2 29 10.3 100850 81
2004-04-01 07:17:08 51°20.898 3°3.285 11.7 34 10.4 100850 81
2004-04-01 07:17:13 51°20.899 3°3.311 11.5 34 10.4 100850 81
2004-04-01 07:17:18 51°20.9 3°3.334 11.3 39 10.4 100850 80
2004-04-01 07:17:24 51°20.903 3°3.36 10.1 48 10.4 100850 80
2004-04-01 07:17:28 51°20.906 3°3.375 10 50 10.4 100860 80
2004-04-01 07:17:33 51°20.911 3°3.393 9.2 55 10.4 100860 80
2004-04-01 07:17:38 51°20.916 3°3.41 9 58 10.4 100860 80
2004-04-01 07:17:44 51°20.923 3°3.43 9.1 62 10.4 100860 80
2004-04-01 07:17:48 51°20.927 3°3.442 8.9 59 10.4 100860 80
2004-04-01 07:17:54 51°20.934 3°3.46 9.5 60 10.4 100860 80
2004-04-01 07:17:58 51°20.938 3°3.472 8.8 59 10.4 100860 80
2004-04-01 07:18:04 51°20.944 3°3.49 9.1 60 10.4 100860 80
2004-04-01 07:18:08 51°20.948 3°3.501 8.8 63 10.4 100860 80
2004-04-01 07:18:13 51°20.952 3°3.514 8.1 60 10.4 100860 80
2004-04-01 07:18:18 51°20.957 3°3.527 8.2 59 10.4 100850 80
2004-04-01 07:18:24 51°20.962 3°3.541 8.6 67 10.4 100850 80
2004-04-01 07:18:28 51°20.965 3°3.55 8.7 66 10.4 100860 80
2004-04-01 07:18:34 51°20.97 3°3.564 7.2 70 10.4 100860 80
2004-04-01 07:18:38 51°20.973 3°3.572 8.2 70 10.4 100860 80
2004-04-01 07:18:44 51°20.978 3°3.585 6.7 70 10.4 100860 80
2004-04-01 07:18:48 51°20.98 3°3.593 7.1 72 10.5 100860 80
2004-04-01 07:18:54 51°20.985 3°3.605 7.1 71 10.5 100860 80
2004-04-01 07:18:58 51°20.987 3°3.612 7.2 72 10.4 100860 80
2004-04-01 07:19:04 51°20.991 3°3.623 7.1 68 10.4 100860 80
2004-04-01 07:19:08 51°20.993 3°3.631 7.2 68 10.5 100860 80
2004-04-01 07:19:13 51°20.995 3°3.639 7.6 73 10.5 100860 80
2004-04-01 07:19:18 51°20.998 3°3.648 8 68 10.4 100870 80
2004-04-01 07:19:24 51°21 3°3.658 7.4 68 10.4 100870 80
2004-04-01 07:19:28 51°21.002 3°3.664 8.1 63 10.5 100870 80
2004-04-01 07:19:34 51°21.004 3°3.674 7.7 64 10.5 100870 80
2004-04-01 07:19:38 51°21.006 3°3.68 8.1 63 10.5 100870 80
2004-04-01 07:19:43 51°21.007 3°3.687 8 60 10.5 100870 80
2004-04-01 07:19:49 51°21.009 3°3.696 7.9 63 10.5 100860 80
2004-04-01 07:19:54 51°21.011 3°3.703 8.7 60 10.5 100860 80
2004-04-01 07:19:58 51°21.012 3°3.709 8.5 62 10.5 100870 80
2004-04-01 07:20:04 51°21.014 3°3.717 8.7 65 10.5 100870 80
2004-04-01 07:20:08 51°21.014 3°3.722 8.7 64 10.5 100870 80
2004-04-01 07:20:13 51°21.016 3°3.729 7.8 63 10.5 100870 80
2004-04-01 07:20:18 51°21.017 3°3.735 8.8 60 10.5 100870 80
2004-04-01 07:20:24 51°21.018 3°3.742 8.5 62 10.5 100870 80
2004-04-01 07:20:28 51°21.019 3°3.747 7.9 63 10.5 100870 80
2004-04-01 07:20:33 51°21.02 3°3.753 8.1 62 10.5 100870 80
2004-04-01 07:20:38 51°21.021 3°3.758 8.3 62 10.5 100870 80
2004-04-01 07:20:44 51°21.023 3°3.765 8.2 61 10.5 100870 80
2004-04-01 07:20:48 51°21.023 3°3.769 8.4 60 10.6 100870 80
2004-04-01 07:20:54 51°21.024 3°3.775 8.3 59 10.6 100870 80
2004-04-01 07:20:58 51°21.025 3°3.78 8 60 10.5 100860 80
2004-04-01 07:21:04 51°21.026 3°3.786 8 65 10.5 100860 80
2004-04-01 07:21:08 51°21.027 3°3.79 7.9 61 10.6 100870 80
2004-04-01 07:21:13 51°21.028 3°3.794 7.8 57 10.6 100870 80
2004-04-01 07:21:18 51°21.029 3°3.799 8.1 60 10.6 100860 80
2004-04-01 07:21:24 51°21.03 3°3.804 8.3 58 10.6 100860 80
2004-04-01 07:21:28 51°21.031 3°3.808 8.3 61 10.6 100870 79
2004-04-01 07:21:34 51°21.031 3°3.813 8.3 65 10.6 100870 79
2004-04-01 07:21:38 51°21.032 3°3.817 8 65 10.6 100870 79
2004-04-01 07:21:44 51°21.033 3°3.822 7.6 64 10.6 100870 79
2004-04-01 07:21:48 51°21.034 3°3.825 7.8 64 10.6 100870 79
2004-04-01 07:21:54 51°21.035 3°3.83 7.7 63 10.6 100870 79
2004-04-01 07:21:58 51°21.036 3°3.833 8 64 10.6 100860 79
2004-04-01 07:22:04 51°21.037 3°3.839 7.7 63 10.6 100860 79
2004-04-01 07:22:08 51°21.038 3°3.843 8.2 61 10.6 100870 79
2004-04-01 07:22:14 51°21.039 3°3.851 8.8 59 10.6 100870 79
2004-04-01 07:22:18 51°21.04 3°3.856 9 63 10.6 100870 79
2004-04-01 07:22:24 51°21.042 3°3.866 8.9 65 10.6 100870 79
2004-04-01 07:22:29 51°21.043 3°3.874 8.5 63 10.6 100880 79
2004-04-01 07:22:33 51°21.045 3°3.881 8 61 10.6 100880 79
2004-04-01 07:22:38 51°21.046 3°3.891 8.8 55 10.6 100880 79
2004-04-01 07:22:44 51°21.049 3°3.902 9.1 61 10.6 100880 79
2004-04-01 07:22:48 51°21.05 3°3.911 9.2 59 10.7 100880 79
2004-04-01 07:22:53 51°21.053 3°3.921 8.9 66 10.7 100880 79
2004-04-01 07:22:58 51°21.055 3°3.932 8.4 63 10.7 100870 79
2004-04-01 07:23:04 51°21.058 3°3.944 8.8 70 10.7 100870 79
2004-04-01 07:23:08 51°21.06 3°3.952 7.9 69 10.7 100870 79
2004-04-01 07:23:13 51°21.063 3°3.962 7.5 66 10.7 100870 79
2004-04-01 07:23:18 51°21.066 3°3.972 7.4 72 10.7 100870 79
2004-04-01 07:23:24 51°21.069 3°3.983 7.7 71 10.7 100870 79
2004-04-01 07:23:28 51°21.071 3°3.991 8.2 74 10.7 100870 79
2004-04-01 07:23:33 51°21.074 3°4 7 73 10.7 100870 79
2004-04-01 07:23:38 51°21.077 3°4.009 7.1 71 10.7 100870 79
2004-04-01 07:23:42 51°21.079 3°4.016 7.6 76 10.7 100870 79
2004-04-01 07:23:48 51°21.083 3°4.027 6.9 79 10.7 100880 79
2004-04-01 07:23:54 51°21.087 3°4.037 7.1 77 10.7 100880 79
2004-04-01 07:23:58 51°21.089 3°4.044 7.1 74 10.7 100880 79
2004-04-01 07:24:04 51°21.093 3°4.054 7 78 10.7 100880 79
2004-04-01 07:24:08 51°21.095 3°4.061 6.3 76 10.7 100880 79
2004-04-01 07:24:13 51°21.099 3°4.069 6 74 10.7 100880 79
2004-04-01 07:24:18 51°21.102 3°4.077 8.4 80 10.7 100880 79
2004-04-01 07:24:24 51°21.105 3°4.086 6.8 80 10.7 100880 79
2004-04-01 07:24:28 51°21.108 3°4.093 6.6 79 10.7 100880 79
2004-04-01 07:24:34 51°21.111 3°4.102 7.2 78 10.7 100880 79
2004-04-01 07:24:38 51°21.114 3°4.108 7.2 79 10.7 100870 79
2004-04-01 07:24:44 51°21.117 3°4.117 6.1 78 10.7 100870 79
2004-04-01 07:24:48 51°21.119 3°4.123 7 79 10.7 100880 79
2004-04-01 07:24:54 51°21.123 3°4.132 7 80 10.7 100880 79
2004-04-01 07:24:58 51°21.125 3°4.138 7.3 78 10.7 100880 79
2004-04-01 07:25:04 51°21.128 3°4.146 7.5 80 10.7 100880 79
2004-04-01 07:25:08 51°21.13 3°4.152 6.2 74 10.7 100880 79
2004-04-01 07:25:14 51°21.133 3°4.161 7.2 78 10.7 100880 79
2004-04-01 07:25:18 51°21.135 3°4.166 7.3 78 10.7 100880 79
2004-04-01 07:25:24 51°21.138 3°4.175 7.5 81 10.7 100880 79
2004-04-01 07:25:28 51°21.14 3°4.18 6.7 81 10.7 100880 79
2004-04-01 07:25:34 51°21.142 3°4.189 6.5 76 10.7 100880 79
2004-04-01 07:25:38 51°21.144 3°4.194 6.3 76 10.7 100880 79
2004-04-01 07:25:44 51°21.147 3°4.203 6 79 10.7 100880 79
2004-04-01 07:25:48 51°21.149 3°4.208 5.8 78 10.7 100880 79
2004-04-01 07:25:54 51°21.152 3°4.216 6.1 78 10.7 100880 79
2004-04-01 07:25:58 51°21.154 3°4.222 6.6 73 10.7 100880 79
2004-04-01 07:26:04 51°21.156 3°4.23 6.1 78 10.7 100880 79
2004-04-01 07:26:09 51°21.159 3°4.236 6 78 10.7 100880 79
2004-04-01 07:26:14 51°21.161 3°4.243 6.3 80 10.7 100880 79
2004-04-01 07:26:18 51°21.163 3°4.249 6.7 78 10.7 100880 79
2004-04-01 07:26:24 51°21.166 3°4.257 7.2 81 10.7 100880 79
2004-04-01 07:26:28 51°21.168 3°4.262 6.9 81 10.7 100880 79
2004-04-01 07:26:33 51°21.17 3°4.268 6.1 78 10.7 100880 79
2004-04-01 07:26:38 51°21.172 3°4.275 7 74 10.7 100880 78
2004-04-01 07:26:44 51°21.175 3°4.283 7.1 80 10.7 100880 78
2004-04-01 07:26:48 51°21.177 3°4.288 7.1 81 10.7 100880 79
2004-04-01 07:26:53 51°21.18 3°4.294 6.6 78 10.7 100880 79
2004-04-01 07:26:58 51°21.182 3°4.301 6 77 10.7 100880 79
2004-04-01 07:27:04 51°21.184 3°4.309 6.7 72 10.7 100880 79
2004-04-01 07:27:09 51°21.187 3°4.315 5.8 69 10.7 100880 79
2004-04-01 07:27:14 51°21.189 3°4.322 5.8 74 10.7 100880 79
2004-04-01 07:27:18 51°21.191 3°4.327 6.7 78 10.7 100880 79
2004-04-01 07:27:24 51°21.194 3°4.335 8.2 80 10.7 100880 79
2004-04-01 07:27:28 51°21.195 3°4.34 8.7 81 10.7 100880 79
2004-04-01 07:27:34 51°21.198 3°4.348 6.9 79 10.7 100880 79
2004-04-01 07:27:38 51°21.2 3°4.353 5.8 74 10.7 100880 79
2004-04-01 07:27:44 51°21.202 3°4.361 5.7 79 10.7 100880 79
2004-04-01 07:27:49 51°21.205 3°4.367 5.5 74 10.7 100880 79
2004-04-01 07:27:54 51°21.207 3°4.374 5.6 71 10.7 100880 79
2004-04-01 07:27:58 51°21.208 3°4.379 4.7 75 10.7 100890 79
2004-04-01 07:28:04 51°21.211 3°4.387 6.8 78 10.7 100890 79
2004-04-01 07:28:08 51°21.212 3°4.392 7.2 75 10.7 100880 79
2004-04-01 07:28:13 51°21.214 3°4.399 6.4 79 10.7 100880 79
2004-04-01 07:28:18 51°21.216 3°4.405 6.1 75 10.7 100880 79
2004-04-01 07:28:24 51°21.219 3°4.413 6 73 10.7 100880 79
2004-04-01 07:28:28 51°21.22 3°4.418 6.1 76 10.7 100870 79
2004-04-01 07:28:34 51°21.223 3°4.426 5.8 76 10.7 100870 79
2004-04-01 07:28:38 51°21.224 3°4.431 6.3 75 10.7 100890 79
2004-04-01 07:28:43 51°21.226 3°4.438 6.2 76 10.7 100890 79
2004-04-01 07:28:48 51°21.228 3°4.445 6.5 69 10.6 100880 79
2004-04-01 07:28:54 51°21.23 3°4.452 6.1 67 10.6 100880 79
2004-04-01 07:28:58 51°21.231 3°4.458 6.1 75 10.7 100880 79
2004-04-01 07:29:04 51°21.234 3°4.466 7 72 10.7 100880 79
2004-04-01 07:29:08 51°21.235 3°4.471 6.9 72 10.7 100880 79
2004-04-01 07:29:13 51°21.237 3°4.478 7.1 74 10.7 100880 79
2004-04-01 07:29:18 51°21.238 3°4.484 6.9 73 10.6 100880 79
2004-04-01 07:29:22 51°21.24 3°4.49 7.2 78 10.6 100880 79
2004-04-01 07:29:28 51°21.242 3°4.497 5.8 78 10.6 100880 79
2004-04-01 07:29:34 51°21.244 3°4.505 7.3 76 10.6 100880 79
2004-04-01 07:29:38 51°21.245 3°4.511 6.6 78 10.6 100890 79
2004-04-01 07:29:44 51°21.247 3°4.519 6.7 71 10.6 100890 79
2004-04-01 07:29:48 51°21.249 3°4.524 7.1 68 10.7 100880 79
2004-04-01 07:29:54 51°21.251 3°4.532 7.3 69 10.7 100880 79
2004-04-01 07:29:58 51°21.252 3°4.537 7.2 73 10.7 100880 79
2004-04-01 07:30:04 51°21.254 3°4.545 7.3 69 10.7 100880 79
2004-04-01 07:30:08 51°21.255 3°4.551 7.5 68 10.7 100880 79
2004-04-01 07:30:14 51°21.257 3°4.559 7.4 70 10.7 100880 79
2004-04-01 07:30:18 51°21.259 3°4.564 6.4 70 10.7 100880 79
2004-04-01 07:30:24 51°21.261 3°4.572 6.9 74 10.7 100880 79
2004-04-01 07:30:28 51°21.262 3°4.577 6.9 70 10.7 100880 79
2004-04-01 07:30:32 51°21.263 3°4.583 8.3 78 10.7 100880 79
2004-04-01 07:30:38 51°21.265 3°4.59 7.5 75 10.7 100880 79
2004-04-01 07:30:44 51°21.267 3°4.599 7.7 66 10.7 100880 79
2004-04-01 07:30:49 51°21.269 3°4.605 7 72 10.7 100890 79
2004-04-01 07:30:54 51°21.27 3°4.612 7.1 71 10.7 100890 79
2004-04-01 07:30:58 51°21.272 3°4.617 7 71 10.7 100880 79
2004-04-01 07:31:04 51°21.274 3°4.625 6.7 69 10.7 100880 79
2004-04-01 07:31:08 51°21.275 3°4.631 6.8 67 10.7 100890 79
2004-04-01 07:31:13 51°21.276 3°4.637 6.5 69 10.7 100890 79
2004-04-01 07:31:18 51°21.278 3°4.644 7.4 67 10.7 100890 79
2004-04-01 07:31:24 51°21.28 3°4.652 6.8 72 10.7 100890 79
2004-04-01 07:31:28 51°21.281 3°4.657 6.9 69 10.7 100890 79
2004-04-01 07:31:34 51°21.283 3°4.665 7.1 66 10.7 100890 79
2004-04-01 07:31:38 51°21.284 3°4.671 6.7 66 10.7 100890 79
2004-04-01 07:31:44 51°21.286 3°4.679 6.7 67 10.7 100890 79
2004-04-01 07:31:48 51°21.287 3°4.685 7.4 66 10.7 100880 79
2004-04-01 07:31:54 51°21.289 3°4.693 7 67 10.7 100880 79
2004-04-01 07:31:58 51°21.29 3°4.698 6.9 68 10.7 100880 79
2004-04-01 07:32:04 51°21.291 3°4.707 6.3 69 10.7 100880 79
2004-04-01 07:32:09 51°21.293 3°4.713 7.1 68 10.7 100880 79
2004-04-01 07:32:14 51°21.294 3°4.72 6.9 67 10.7 100880 79
2004-04-01 07:32:18 51°21.295 3°4.726 6.6 70 10.6 100890 79
2004-04-01 07:32:24 51°21.297 3°4.734 7.1 65 10.6 100890 79
2004-04-01 07:32:28 51°21.298 3°4.74 7.3 65 10.6 100880 79
2004-04-01 07:32:34 51°21.3 3°4.748 7.4 67 10.6 100880 79
2004-04-01 07:32:38 51°21.301 3°4.753 7.7 66 10.6 100880 79
2004-04-01 07:32:44 51°21.302 3°4.762 7.6 67 10.6 100880 79
2004-04-01 07:32:48 51°21.303 3°4.767 7.3 60 10.6 100880 79
2004-04-01 07:32:53 51°21.305 3°4.774 6.6 68 10.6 100880 79
2004-04-01 07:32:58 51°21.306 3°4.781 7.5 62 10.6 100880 79
2004-04-01 07:33:04 51°21.307 3°4.789 7.5 62 10.6 100880 79
2004-04-01 07:33:08 51°21.309 3°4.795 7.7 61 10.6 100880 79
2004-04-01 07:33:14 51°21.31 3°4.803 7.6 62 10.6 100880 79
2004-04-01 07:33:18 51°21.311 3°4.809 8 59 10.6 100880 79
2004-04-01 07:33:24 51°21.312 3°4.817 8.4 61 10.6 100880 79
2004-04-01 07:33:28 51°21.313 3°4.823 8.8 65 10.6 100880 79
2004-04-01 07:33:34 51°21.314 3°4.831 8.5 66 10.6 100880 79
2004-04-01 07:33:38 51°21.315 3°4.837 7.6 60 10.6 100870 79
2004-04-01 07:33:44 51°21.317 3°4.845 7.6 60 10.6 100870 79
2004-04-01 07:33:49 51°21.318 3°4.852 7.3 66 10.6 100880 80
2004-04-01 07:33:54 51°21.319 3°4.859 7.3 61 10.6 100880 80
2004-04-01 07:33:58 51°21.32 3°4.865 7.5 58 10.7 100890 80
2004-04-01 07:34:04 51°21.321 3°4.873 7.5 61 10.7 100890 80
2004-04-01 07:34:09 51°21.322 3°4.88 7.8 63 10.7 100880 79
2004-04-01 07:34:14 51°21.323 3°4.887 7.6 61 10.7 100880 79
2004-04-01 07:34:19 51°21.324 3°4.894 7.8 62 10.7 100880 79
2004-04-01 07:34:24 51°21.325 3°4.901 7.6 60 10.7 100880 79
2004-04-01 07:34:28 51°21.326 3°4.907 7.5 62 10.7 100880 79
2004-04-01 07:34:33 51°21.327 3°4.914 7.3 63 10.7 100880 79
2004-04-01 07:34:38 51°21.328 3°4.921 8.6 61 10.7 100880 79
2004-04-01 07:34:44 51°21.329 3°4.929 7.8 63 10.7 100880 79
2004-04-01 07:34:48 51°21.33 3°4.935 7.6 67 10.7 100880 79
2004-04-01 07:34:52 51°21.331 3°4.941 7.1 63 10.7 100880 79
2004-04-01 07:34:58 51°21.332 3°4.949 7 65 10.7 100890 79
2004-04-01 07:35:04 51°21.333 3°4.958 7.4 62 10.7 100890 79
2004-04-01 07:35:08 51°21.334 3°4.963 7.7 61 10.7 100880 79
2004-04-01 07:35:14 51°21.335 3°4.972 7.2 61 10.7 100880 79
2004-04-01 07:35:18 51°21.336 3°4.977 7.2 59 10.7 100890 79
2004-04-01 07:35:24 51°21.337 3°4.986 7 57 10.7 100890 79
2004-04-01 07:35:28 51°21.338 3°4.992 7.4 60 10.7 100880 79
2004-04-01 07:35:34 51°21.338 3°5 7.5 59 10.7 100880 79
2004-04-01 07:35:38 51°21.339 3°5.006 8.6 57 10.7 100880 79
2004-04-01 07:35:43 51°21.34 3°5.013 9.4 64 10.7 100880 79
2004-04-01 07:35:49 51°21.341 3°5.022 8.5 62 10.7 100880 79
2004-04-01 07:35:54 51°21.342 3°5.029 8.7 66 10.7 100880 79
2004-04-01 07:35:58 51°21.343 3°5.035 7.5 64 10.6 100870 79
2004-04-01 07:36:04 51°21.344 3°5.043 8.6 67 10.6 100870 79
2004-04-01 07:36:09 51°21.345 3°5.051 8.3 64 10.7 100880 79
2004-04-01 07:36:13 51°21.346 3°5.056 8.1 63 10.7 100880 79
2004-04-01 07:36:18 51°21.347 3°5.063 8.2 61 10.7 100880 79
2004-04-01 07:36:24 51°21.348 3°5.072 8.1 63 10.7 100880 79